Time,TemperatureF,DewpointF,PressureIn,WindDirection,WindDirectionDegrees,WindSpeedMPH,WindSpeedGustMPH,Humidity,HourlyPrecipIn,Conditions,Clouds,dailyrainin,SoftwareType,DateUTC
2013-06-17 00:00:00,69.0,-99.9,-100.00,SSE,162,1.0,3.0,-999,0.00,,,0.00,,2013-06-17 05:00:00,
2013-06-17 00:44:00,69.0,-99.9,-100.00,SSE,162,1.0,3.0,-999,0.00,,,0.00,,2013-06-17 05:44:00,
2013-06-17 00:53:00,69.0,-99.9,-100.00,SSE,162,1.0,3.0,-999,0.00,,,0.00,,2013-06-17 05:53:00,
2013-06-17 01:00:00,68.0,-99.9,-100.00,SSW,196,0.0,2.0,-999,0.00,,,0.00,,2013-06-17 06:00:00,
2013-06-17 01:44:00,68.0,-99.9,-100.00,SSW,196,0.0,2.0,-999,0.00,,,0.00,,2013-06-17 06:44:00,
2013-06-17 01:53:00,68.0,-99.9,-100.00,SSW,196,0.0,2.0,-999,0.00,,,0.00,,2013-06-17 06:53:00,
2013-06-17 02:00:00,67.0,-99.9,-100.00,SSW,202,1.0,2.0,-999,0.00,,,0.00,,2013-06-17 07:00:00,
2013-06-17 02:43:00,67.0,-99.9,-100.00,SSW,202,1.0,2.0,-999,0.00,,,0.00,,2013-06-17 07:43:00,
2013-06-17 02:53:00,67.0,-99.9,-100.00,SSW,202,1.0,2.0,-999,0.00,,,0.00,,2013-06-17 07:53:00,
2013-06-17 03:00:00,67.0,-99.9,-100.00,ESE,121,1.0,3.0,-999,0.00,,,0.00,,2013-06-17 08:00:00,
2013-06-17 03:43:00,67.0,-99.9,-100.00,ESE,121,1.0,3.0,-999,0.00,,,0.00,,2013-06-17 08:43:00,
2013-06-17 03:53:00,67.0,-99.9,-100.00,ESE,121,1.0,3.0,-999,0.00,,,0.00,,2013-06-17 08:53:00,
2013-06-17 04:00:00,68.0,-99.9,-100.00,NNW,337,1.0,3.0,-999,0.00,,,0.00,,2013-06-17 09:00:00,
2013-06-17 04:44:00,68.0,-99.9,-100.00,NNW,337,1.0,3.0,-999,0.00,,,0.00,,2013-06-17 09:44:00,
2013-06-17 04:53:00,68.0,-99.9,-100.00,NNW,337,1.0,3.0,-999,0.00,,,0.00,,2013-06-17 09:53:00,
2013-06-17 05:00:00,66.0,-99.9,-100.00,South,177,1.0,2.0,-999,0.00,,,0.00,,2013-06-17 10:00:00,
2013-06-17 05:43:00,66.0,-99.9,-100.00,South,177,1.0,2.0,-999,0.00,,,0.00,,2013-06-17 10:43:00,
2013-06-17 05:54:00,66.0,-99.9,-100.00,South,177,1.0,2.0,-999,0.00,,,0.00,,2013-06-17 10:54:00,
2013-06-17 06:00:00,64.0,-99.9,-100.00,South,179,2.0,4.0,-999,0.00,,,0.00,,2013-06-17 11:00:00,
2013-06-17 06:43:00,64.0,-99.9,-100.00,South,179,2.0,4.0,-999,0.00,,,0.00,,2013-06-17 11:43:00,
2013-06-17 06:53:00,64.0,-99.9,-100.00,South,179,2.0,4.0,-999,0.00,,,0.00,,2013-06-17 11:53:00,
2013-06-17 07:00:00,66.0,-99.9,-100.00,WSW,252,1.0,2.0,-999,0.00,,,0.00,,2013-06-17 12:00:00,
2013-06-17 07:43:00,66.0,-99.9,-100.00,WSW,252,1.0,2.0,-999,0.00,,,0.00,,2013-06-17 12:43:00,
2013-06-17 07:53:00,66.0,-99.9,-100.00,WSW,252,1.0,2.0,-999,0.00,,,0.00,,2013-06-17 12:53:00,
2013-06-17 08:00:00,71.0,-99.9,-100.00,NW,316,2.0,5.0,-999,0.00,,,0.00,,2013-06-17 13:00:00,
2013-06-17 08:43:00,71.0,-99.9,-100.00,NW,316,2.0,5.0,-999,0.00,,,0.00,,2013-06-17 13:43:00,
2013-06-17 08:53:00,71.0,-99.9,-100.00,NW,316,2.0,5.0,-999,0.00,,,0.00,,2013-06-17 13:53:00,
2013-06-17 09:00:00,74.0,-99.9,-100.00,NW,309,2.0,6.0,-999,0.00,,,0.00,,2013-06-17 14:00:00,
2013-06-17 09:44:00,74.0,-99.9,-100.00,NW,309,2.0,6.0,-999,0.00,,,0.00,,2013-06-17 14:44:00,
2013-06-17 09:54:00,74.0,-99.9,-100.00,NW,309,2.0,6.0,-999,0.00,,,0.00,,2013-06-17 14:54:00,
2013-06-17 10:00:00,78.0,-99.9,-100.00,NW,309,2.0,6.0,-999,0.00,,,0.00,,2013-06-17 15:00:00,
2013-06-17 10:43:00,78.0,-99.9,-100.00,NW,309,2.0,6.0,-999,0.00,,,0.00,,2013-06-17 15:43:00,
2013-06-17 10:53:00,78.0,-99.9,-100.00,NW,309,2.0,6.0,-999,0.00,,,0.00,,2013-06-17 15:53:00,
2013-06-17 11:00:00,83.0,-99.9,-100.00,NW,307,2.0,5.0,-999,0.00,,,0.00,,2013-06-17 16:00:00,
2013-06-17 11:43:00,83.0,-99.9,-100.00,NW,307,2.0,5.0,-999,0.00,,,0.00,,2013-06-17 16:43:00,
2013-06-17 11:54:00,83.0,-99.9,-100.00,NW,307,2.0,5.0,-999,0.00,,,0.00,,2013-06-17 16:54:00,
2013-06-17 12:00:00,85.0,-99.9,-100.00,NW,310,1.0,4.0,-999,0.00,,,0.00,,2013-06-17 17:00:00,
2013-06-17 12:43:00,85.0,-99.9,-100.00,NW,310,1.0,4.0,-999,0.00,,,0.00,,2013-06-17 17:43:00,
2013-06-17 12:53:00,85.0,-99.9,-100.00,NW,310,1.0,4.0,-999,0.00,,,0.00,,2013-06-17 17:53:00,
2013-06-17 13:00:00,87.0,-99.9,-100.00,West,278,1.0,5.0,-999,0.00,,,0.00,,2013-06-17 18:00:00,
2013-06-17 13:43:00,87.0,-99.9,-100.00,West,278,1.0,5.0,-999,0.00,,,0.00,,2013-06-17 18:43:00,
2013-06-17 13:53:00,87.0,-99.9,-100.00,West,278,1.0,5.0,-999,0.00,,,0.00,,2013-06-17 18:53:00,
2013-06-17 14:00:00,86.0,-99.9,-100.00,NW,319,2.0,7.0,-999,0.00,,,0.00,,2013-06-17 19:00:00,
2013-06-17 14:44:00,86.0,-99.9,-100.00,NW,319,2.0,7.0,-999,0.00,,,0.00,,2013-06-17 19:44:00,
2013-06-17 14:54:00,86.0,-99.9,-100.00,NW,319,2.0,7.0,-999,0.00,,,0.00,,2013-06-17 19:54:00,
2013-06-17 15:00:00,87.0,-99.9,-100.00,NNW,348,2.0,7.0,-999,0.00,,,0.00,,2013-06-17 20:00:00,
2013-06-17 15:44:00,87.0,-99.9,-100.00,NNW,348,2.0,7.0,-999,0.00,,,0.00,,2013-06-17 20:44:00,
2013-06-17 15:53:00,87.0,-99.9,-100.00,NNW,348,2.0,7.0,-999,0.00,,,0.00,,2013-06-17 20:53:00,
2013-06-17 16:00:00,88.0,-99.9,-100.00,NNW,329,1.0,6.0,-999,0.00,,,0.00,,2013-06-17 21:00:00,
2013-06-17 16:43:00,88.0,-99.9,-100.00,NNW,329,1.0,6.0,-999,0.00,,,0.00,,2013-06-17 21:43:00,
2013-06-17 16:52:00,88.0,-99.9,-100.00,NNW,329,1.0,6.0,-999,0.00,,,0.00,,2013-06-17 21:52:00,
2013-06-17 17:00:00,88.0,-99.9,-100.00,NNW,336,2.0,6.0,-999,0.00,,,0.00,,2013-06-17 22:00:00,
2013-06-17 17:43:00,88.0,-99.9,-100.00,NNW,336,2.0,6.0,-999,0.00,,,0.00,,2013-06-17 22:43:00,
2013-06-17 17:54:00,88.0,-99.9,-100.00,NNW,336,2.0,6.0,-999,0.00,,,0.00,,2013-06-17 22:54:00,
2013-06-17 18:00:00,88.0,-99.9,-100.00,NNW,327,2.0,7.0,-999,0.00,,,0.00,,2013-06-17 23:00:00,
2013-06-17 18:53:00,88.0,-99.9,-100.00,NNW,327,2.0,7.0,-999,0.00,,,0.00,,2013-06-17 23:53:00,
2013-06-17 19:00:00,83.0,-99.9,-100.00,NW,313,2.0,5.0,-999,0.00,,,0.00,,2013-06-18 00:00:00,
2013-06-17 19:43:00,83.0,-99.9,-100.00,NW,313,2.0,5.0,-999,0.00,,,0.00,,2013-06-18 00:43:00,
2013-06-17 19:53:00,83.0,-99.9,-100.00,NW,313,2.0,5.0,-999,0.00,,,0.00,,2013-06-18 00:53:00,
2013-06-17 20:00:00,81.0,-99.9,-100.00,NW,319,1.0,2.0,-999,0.00,,,0.00,,2013-06-18 01:00:00,
2013-06-17 20:44:00,81.0,-99.9,-100.00,NW,319,1.0,2.0,-999,0.00,,,0.00,,2013-06-18 01:44:00,
2013-06-17 20:54:00,81.0,-99.9,-100.00,NW,319,1.0,2.0,-999,0.00,,,0.00,,2013-06-18 01:54:00,
2013-06-17 21:00:00,78.0,-99.9,-100.00,WNW,288,2.0,3.0,-999,0.00,,,0.00,,2013-06-18 02:00:00,
2013-06-17 21:43:00,78.0,-99.9,-100.00,WNW,288,2.0,3.0,-999,0.00,,,0.00,,2013-06-18 02:43:00,
2013-06-17 21:53:00,78.0,-99.9,-100.00,WNW,288,2.0,3.0,-999,0.00,,,0.00,,2013-06-18 02:53:00,
2013-06-17 22:00:00,77.0,-99.9,-100.00,NW,313,2.0,3.0,-999,0.00,,,0.00,,2013-06-18 03:00:00,
2013-06-17 22:43:00,77.0,-99.9,-100.00,NW,313,2.0,3.0,-999,0.00,,,0.00,,2013-06-18 03:43:00,
2013-06-17 22:53:00,77.0,-99.9,-100.00,NW,313,2.0,3.0,-999,0.00,,,0.00,,2013-06-18 03:53:00,
2013-06-17 23:00:00,73.0,-99.9,-100.00,WNW,294,1.0,3.0,-999,0.00,,,0.00,,2013-06-18 04:00:00,
2013-06-17 23:43:00,73.0,-99.9,-100.00,WNW,294,1.0,3.0,-999,0.00,,,0.00,,2013-06-18 04:43:00,
2013-06-17 23:54:00,73.0,-99.9,-100.00,WNW,294,1.0,3.0,-999,0.00,,,0.00,,2013-06-18 04:54:00,